Powrót do katalogu

FENGYUN 1C DEB

AktywnySSO
NORAD 31199·DEBRIS·🇨🇳 China

Wystrzelony May 10, 1999 z Taiyuan Satellite Launch Center

Loading…

Następne Przeloty (najbliższe 24 godziny)

TLE

ŚwieżeSource: Space-Track

Epoka: Sep 13, 2026, 04:08 UTC

1 31199U 99025BKD 26256.17225786  .00000236  00000-0  15465-3 0  9992
2 31199  98.7421 235.8732 0063364 201.2190 218.9254 14.10157837   225

Śledź FENGYUN 1C DEB w czasie rzeczywistym z AllMySat

Download on the App Store